15min,AgWx,beryljct,423,16JUN2019:00:00:00,57.7,12.92,54.1,53.9,54.5,55.6,53.9,72,75,70,1.046,45.8,46.6,44.9,0.241,1.9,191,3.7,3.6,-0.00015,-0.00019,69.3,68.8,10,0,.,.,16.00,0.00,0.00
15min,AgWx,beryljct,423,16JUN2019:00:15:00,57.1,12.93,54.3,54.4,54.6,55.4,53.7,65,74,60,0.985,43.2,46.0,41.5,1.315,1.5,189,0.4,2.7,-0.00017,-0.00022,69.0,68.7,10,0,.,.,15.99,0.00,0.00
15min,AgWx,beryljct,423,16JUN2019:00:30:00,56.7,12.93,56.5,56.1,55.1,56.3,54.0,66,76,53,0.932,43.6,46.6,39.2,0,1.0,179,8.2,2.5,-0.00022,-0.00031,68.7,68.6,10,0,.,.,16.00,0.00,0.00
15min,AgWx,beryljct,423,16JUN2019:00:45:00,56.6,12.92,54.0,54.4,57.0,58.2,54.4,57,76,48,1.092,41.5,46.9,38.8,1.337,1.3,171,0.1,2.3,-0.00019,-0.00025,68.5,68.6,10,0,.,.,16.00,0.00,0.00
15min,AgWx,beryljct,423,16JUN2019:01:00:00,56.3,12.91,54.9,55.7,54.9,55.9,54.0,70,78,59,0.986,45.0,47.5,41.5,0,0.2,172,0.3,1.4,-0.00032,-0.00049,68.2,68.5,9,0,.,.,15.99,0.00,0.00
15min,AgWx,beryljct,423,16JUN2019:01:15:00,56.0,12.91,55.8,55.2,54.5,55.6,53.8,74,79,67,1.013,46.5,47.9,44.9,0.285,0.8,215,40,3.8,-0.00025,-0.00037,67.9,68.4,10,0,.,.,15.99,0.00,0.00
15min,AgWx,beryljct,423,16JUN2019:01:30:00,55.5,12.91,51.1,51.6,53.3,55.3,51.6,72,77,63,0.968,44.4,46.1,41.4,1.184,1.4,148,69,3.1,-0.00019,-0.00026,67.7,68.4,10,0,.,.,16.00,0.00,0.00
15min,AgWx,beryljct,423,16JUN2019:01:45:00,54.9,12.9,51.9,51.8,52.1,53.0,51.5,72,77,63,0.960,43.5,45.1,40.9,0.482,0.4,125,0.0,1.8,-0.00028,-0.00043,67.4,68.3,10,0,.,.,15.99,0.00,0.00
15min,AgWx,beryljct,423,16JUN2019:02:00:00,54.3,12.9,51.9,51.8,52.3,52.9,51.5,70,76,64,0.995,42.8,44.5,40.6,0,0.4,125,0.0,1.4,-0.00029,-0.00044,67.2,68.2,10,0,.,.,15.99,0.00,0.00
15min,AgWx,beryljct,423,16JUN2019:02:15:00,53.8,12.89,50.5,51.0,51.2,51.8,50.6,79,84,71,1.027,45.0,46.2,42.7,1.622,1.8,125,2.0,4.5,-0.00017,-0.00023,66.9,68.1,10,0,.,.,15.99,0.00,0.00
15min,AgWx,beryljct,423,16JUN2019:02:30:00,53.3,12.89,50.7,50.4,50.2,50.9,49.9,85,88,81,1.066,45.8,46.4,45.0,0,1.1,173,83,3.1,-0.00022,-0.00031,66.7,68.0,10,0,.,.,16.00,0.00,0.00
15min,AgWx,beryljct,423,16JUN2019:02:45:00,53.0,12.89,51.6,52.1,51.5,52.4,50.4,80,86,72,1.089,45.6,46.8,43.6,0,0.7,280,54,4.5,-0.00026,-0.00038,66.5,67.9,10,0,.,.,16.00,0.00,0.00
15min,AgWx,beryljct,423,16JUN2019:03:00:00,53.7,12.88,57.7,58.1,55.3,58.7,51.2,68,85,53,0.917,44.4,46.9,41.7,6.62,4.8,316,48,8.5,0.00006,0.00011,66.2,67.8,10,0,.,.,16.00,0.00,0.00
15min,AgWx,beryljct,423,16JUN2019:03:15:00,55.3,12.86,54.5,54.8,56.6,58.0,54.8,56,64,52,0.941,41.1,43.0,40.0,7.892,3.8,348,14,7.9,0.00007,0.00013,66.0,67.7,10,0,.,.,15.99,0.00,0.00
15min,AgWx,beryljct,423,16JUN2019:03:30:00,55.8,12.88,53.7,54.2,54.3,55.3,53.6,65,67,60,0.937,42.6,43.6,41.4,3.332,5.3,331,13,11.0,0.00010,0.00016,65.8,67.6,9,0,.,.,15.99,0.00,0.00
15min,AgWx,beryljct,423,16JUN2019:03:45:00,56.1,12.87,56.9,56.8,55.7,56.8,53.9,61,67,59,0.926,42.4,43.3,41.9,1.425,3.3,343,8.0,4.8,0.00001,0.00004,65.6,67.5,10,0,.,.,15.99,0.00,0.00
15min,AgWx,beryljct,423,16JUN2019:04:00:00,56.5,12.88,55.6,56.0,56.0,57.3,55.0,65,70,57,0.995,44.3,45.9,42.2,7.826,6.7,94,47,14.9,0.00016,0.00023,65.4,67.4,10,0,.,.,15.99,0.00,0.00
15min,AgWx,beryljct,423,16JUN2019:04:15:00,56.6,12.87,55.8,55.6,55.5,56.2,55.0,67,69,64,0.996,44.7,45.3,44.0,2.346,4.2,162,21,8.3,0.00003,0.00007,65.2,67.4,10,0,.,.,15.99,0.00,0.00
15min,AgWx,beryljct,423,16JUN2019:04:30:00,56.5,12.86,55.9,55.7,55.5,55.7,55.3,66,68,65,0.985,44.5,45.1,43.9,4.976,3.4,185,12,5.7,0.00029,0.00051,65.0,67.2,10,0,.,.,15.99,0.00,0.00
15min,AgWx,beryljct,423,16JUN2019:04:45:00,56.5,12.85,55.1,55.3,55.7,56.1,55.3,66,68,63,1.009,44.4,45.1,43.8,5.217,4.4,160,22,6.4,0.00038,0.00066,64.8,67.2,10,0,.,.,15.99,0.00,0.00
15min,AgWx,beryljct,423,16JUN2019:05:00:00,56.5,12.86,55.6,55.5,55.5,56.0,55.2,66,68,64,1.001,44.4,44.9,43.7,3.968,5.2,180,11,6.1,0.00043,0.00076,64.7,67.1,10,0,.,.,15.99,0.00,0.00
15min,AgWx,beryljct,423,16JUN2019:05:15:00,56.6,12.86,56.7,56.5,56.4,57.0,55.4,62,67,59,1.006,43.8,44.7,42.8,4.932,4.2,184,6.5,4.9,0.00041,0.00072,64.5,67.0,10,2,.,.,15.99,0.00,0.00
15min,AgWx,beryljct,423,16JUN2019:05:30:00,57.0,12.85,58.7,58.2,57.4,58.4,56.5,61,67,55,0.911,43.9,45.6,42.2,4.231,3.3,173,17,4.8,0.00038,0.00064,64.4,66.9,10,5,.,.,15.99,0.00,0.00
15min,AgWx,beryljct,423,16JUN2019:05:45:00,57.5,12.88,57.6,57.5,58.3,59.2,57.0,58,68,53,1.030,43.5,46.7,41.9,5.349,3.9,160,24,6.4,0.00052,0.00085,64.2,66.8,10,14,.,.,15.98,0.00,0.00
15min,AgWx,beryljct,423,16JUN2019:06:00:00,58.0,12.87,59.8,59.2,58.3,59.2,57.5,59,64,57,0.981,44.2,45.3,43.4,4.297,4.4,180,6.4,5.9,0.00065,0.00101,64.1,66.7,10,32,.,.,15.98,0.00,0.00
15min,AgWx,beryljct,423,16JUN2019:06:15:00,58.8,12.86,61.7,61.2,59.9,61.2,59.3,57,59,52,0.965,44.7,45.5,43.7,6.138,4.9,195,8.7,6.5,0.00066,0.00108,63.9,66.6,9,20,.,.,15.98,0.00,0.00
15min,AgWx,beryljct,423,16JUN2019:06:30:00,59.6,12.87,61.4,62.0,62.4,65.3,61.2,51,57,42,1.088,44.2,46.8,41.2,7.278,6.3,289,72,8.4,0.00087,0.00148,63.8,66.5,10,11,.,.,15.99,0.00,0.00
15min,AgWx,beryljct,423,16JUN2019:06:45:00,58.8,12.87,58.3,57.6,58.8,62.0,56.8,68,78,56,1.190,48.1,50.0,46.3,8.75,5.2,32,68,9.8,0.00052,0.00086,63.7,66.4,9,15,.,.,15.99,0.01,0.00
15min,AgWx,beryljct,423,16JUN2019:07:00:00,58.4,12.91,60.6,60.1,60.6,62.4,57.7,64,73,54,1.237,48.1,50.6,45.3,7.3,4.5,291,19,9.0,0.00067,0.00101,63.6,66.3,10,38,.,.,16.00,0.00,0.00
15min,AgWx,beryljct,423,16JUN2019:07:15:00,58.7,12.93,61.7,61.3,60.4,61.3,59.5,72,77,67,1.330,51.2,52.2,49.4,2.543,4.1,252,23,7.2,0.00089,0.00117,63.5,66.2,10,95,.,.,15.99,0.00,0.00
15min,AgWx,beryljct,423,16JUN2019:07:30:00,59.7,12.97,63.4,63.2,62.3,63.2,61.2,71,78,65,1.334,52.8,54.2,51.4,0.745,2.0,262,35,4.3,0.00103,0.00121,63.4,66.1,10,132,.,.,15.99,0.00,0.00
15min,AgWx,beryljct,423,16JUN2019:07:45:00,61.2,12.96,62.7,63.0,63.8,64.5,63.0,69,75,63,1.469,53.3,55.3,50.9,4.077,1.7,117,28,4.1,0.00127,0.00146,63.4,66.0,9,171,.,.,15.99,0.00,0.00
15min,AgWx,beryljct,423,16JUN2019:08:00:00,62.2,12.99,61.9,62.0,62.2,62.9,61.9,76,79,73,1.434,54.7,55.6,54.0,4.604,4.2,51,19,7.8,0.00105,0.00131,63.3,65.9,9,128,.,.,16.00,0.00,0.00
15min,AgWx,beryljct,423,16JUN2019:08:15:00,63.0,13.11,64.2,63.8,62.9,64.0,62.0,68,76,57,1.357,51.9,54.4,48.5,2.674,3.5,17,22,6.0,0.00139,0.00170,63.3,65.9,9,171,.,.,15.99,0.00,0.00
15min,AgWx,beryljct,423,16JUN2019:08:30:00,64.4,13.29,64.3,64.4,64.5,65.1,63.8,63,67,59,1.317,51.6,53.3,49.5,5.239,2.8,93,55,9.0,0.00215,0.00250,63.4,65.8,10,306,.,.,15.99,0.00,0.00
15min,AgWx,beryljct,423,16JUN2019:08:45:00,65.6,13.51,66.0,65.9,64.8,65.9,64.4,62,65,58,1.276,51.3,52.6,50.3,1.666,3.0,115,15,5.3,0.00244,0.00284,63.4,65.7,9,356,.,.,15.99,0.00,0.00
15min,AgWx,beryljct,423,16JUN2019:09:00:00,68.7,14.15,70.0,69.0,67.5,69.1,65.9,53,58,49,1.198,49.9,51.7,48.3,3.836,2.2,45,21,5.2,0.00431,0.00481,63.5,65.6,9,664,.,.,15.99,0.00,0.00
15min,AgWx,beryljct,423,16JUN2019:09:15:00,71.7,14.04,70.5,70.4,69.4,70.4,69.0,49,53,47,1.306,49.6,52.0,48.2,6.116,5.2,29,17,7.6,0.00474,0.00558,63.6,65.6,9,696,.,.,15.99,0.00,0.00
15min,AgWx,beryljct,423,16JUN2019:09:30:00,74.2,14.02,71.9,72.1,71.3,72.3,70.4,45,51,39,1.051,48.9,52.2,45.9,4.034,5.5,57,22,11.6,0.00528,0.00625,63.8,65.5,9,756,.,.,15.98,0.00,0.00
15min,AgWx,beryljct,423,16JUN2019:09:45:00,75.8,13.99,72.2,72.4,72.2,72.5,71.8,41,44,39,1.089,47.4,49.1,45.8,8.02,8.4,43,18,12.0,0.00579,0.00712,64.0,65.4,9,800,.,.,15.98,0.00,0.00
15min,AgWx,beryljct,423,16JUN2019:10:00:00,77.1,13.96,73.1,73.5,73.0,73.6,72.3,40,43,38,1.179,47.0,49.9,45.5,11.79,8.4,353,23,13.7,0.00645,0.00787,64.3,65.4,9,907,.,.,15.98,0.00,0.00
15min,AgWx,beryljct,423,16JUN2019:10:15:00,77.1,13.59,71.4,71.6,72.4,73.6,71.4,41,43,40,1.103,47.6,49.5,46.5,8.31,9.5,352,19,13.6,0.00359,0.00490,64.6,65.3,9,339,.,.,15.97,0.00,0.00
15min,AgWx,beryljct,423,16JUN2019:10:30:00,74.5,14.07,69.5,69.5,70.7,71.6,69.5,42,45,40,1.105,46.7,47.9,45.7,14.38,12.3,5.4,9.7,19.8,0.00300,0.00445,65.0,65.3,9,204,.,.,15.97,0.00,0.00
15min,AgWx,beryljct,423,16JUN2019:10:45:00,73.6,14.1,73.0,71.8,70.7,71.8,69.5,43,45,41,1.148,46.9,48.3,45.8,12.5,16.4,8.4,8.9,21.7,0.00648,0.00842,65.4,65.2,9,919,.,.,15.97,0.00,0.00
15min,AgWx,beryljct,423,16JUN2019:11:00:00,75.2,14.01,75.7,74.4,72.9,74.4,71.8,41,45,38,1.136,48.0,49.8,46.6,13.44,14.2,21,12,18.7,0.00763,0.00957,65.6,65.2,9,1091,.,.,15.97,0.00,0.00
15min,AgWx,beryljct,423,16JUN2019:11:15:00,76.4,13.99,72.6,72.2,73.1,74.4,72.2,38,41,36,1.098,46.1,48.0,44.6,13.04,15.5,16,11,22.7,0.00660,0.00867,65.9,65.2,9,844,.,.,15.97,0.00,0.00
15min,AgWx,beryljct,423,16JUN2019:11:30:00,76.3,14,69.8,70.2,71.5,73.2,70.2,42,45,40,1.058,47.5,50.0,46.1,11.77,11.5,14,13,16.5,0.00439,0.00589,66.2,65.2,9,482,.,.,15.97,0.00,0.00
15min,AgWx,beryljct,423,16JUN2019:11:45:00,74.4,13.67,69.6,69.7,69.8,70.2,69.7,45,48,42,1.183,47.5,49.0,45.9,6.862,9.7,39,13,15.4,0.00278,0.00396,66.4,65.2,9,228,.,.,15.97,0.00,0.00
15min,AgWx,beryljct,423,16JUN2019:12:00:00,73.5,13.64,71.7,71.1,70.8,71.3,69.7,45,48,41,1.150,48.2,50.3,46.2,4.954,7.8,51,13,11.6,0.00412,0.00523,66.7,65.2,9,503,.,.,15.97,0.00,0.00
15min,AgWx,beryljct,423,16JUN2019:12:15:00,74.2,13.59,73.5,72.5,71.4,72.5,70.9,44,46,42,1.177,48.3,50.3,46.5,4.713,7.7,58,15,11.9,0.00456,0.00571,67.0,65.2,9,589,.,.,15.97,0.00,0.00
15min,AgWx,beryljct,423,16JUN2019:12:30:00,75.5,13.57,72.9,73.0,72.5,74.0,71.7,43,46,40,1.271,48.6,51.9,46.9,8.62,8.5,59,13,11.8,0.00560,0.00691,67.2,65.3,10,745,.,.,15.97,0.00,0.00
15min,AgWx,beryljct,423,16JUN2019:12:45:00,76.1,13.59,73.3,73.0,72.7,73.3,72.2,43,45,41,1.162,48.7,50.4,47.1,6.401,9.9,66,14,14.2,0.00472,0.00611,67.4,65.3,10,561,.,.,15.97,0.00,0.00
15min,AgWx,beryljct,423,16JUN2019:13:00:00,76.7,13.56,73.8,73.8,73.4,73.9,72.9,41,43,37,1.141,48.0,49.7,45.5,4.384,6.4,84,18,9.8,0.00460,0.00570,67.6,65.4,9,576,.,.,15.97,0.00,0.00
15min,AgWx,beryljct,423,16JUN2019:13:15:00,77.8,13.57,75.0,75.4,74.5,75.4,73.8,37,41,34,1.134,46.7,48.9,44.1,7.432,5.3,76,20,8.2,0.00602,0.00713,67.8,65.4,9,831,.,.,15.97,0.00,0.00
15min,AgWx,beryljct,423,16JUN2019:13:30:00,79.0,13.51,75.6,76.0,75.5,76.5,74.9,35,39,33,1.018,46.1,49.6,43.8,4.582,5.3,98,31,9.8,0.00690,0.00811,68.0,65.4,9,969,.,.,15.97,0.00,0.00
15min,AgWx,beryljct,423,16JUN2019:13:45:00,80.1,13.51,76.4,77.0,76.0,77.1,75.4,32,35,29,1.001,44.0,46.6,41.1,0.307,3.1,60,52,7.6,0.00650,0.00743,68.3,65.5,9,923,.,.,15.97,0.00,0.00
15min,AgWx,beryljct,423,16JUN2019:14:00:00,81.6,13.45,78.8,77.5,77.4,78.3,76.9,31,37,28,1.034,44.3,49.9,41.9,4.099,3.4,8.2,49,8.1,0.00674,0.00771,68.7,65.6,10,942,.,.,15.96,0.00,0.00
15min,AgWx,beryljct,423,16JUN2019:14:15:00,82.7,13.41,77.6,77.6,77.7,78.7,76.8,31,34,28,0.959,44.6,47.1,41.9,2.828,3.8,327,71,8.7,0.00658,0.00762,69.1,65.6,10,910,.,.,15.96,0.00,0.00
15min,AgWx,beryljct,423,16JUN2019:14:30:00,83.7,13.4,76.7,77.9,78.1,78.5,77.4,30,34,27,0.909,44.2,47.8,41.6,3.595,6.8,34,23,13.0,0.00704,0.00853,69.5,65.7,9,933,.,.,15.96,0.00,0.00
15min,AgWx,beryljct,423,16JUN2019:14:45:00,84.7,13.36,79.2,78.8,78.4,79.4,77.5,29,34,27,1.019,43.8,48.3,41.2,10.13,3.4,46,31,10.4,0.00611,0.00707,70.0,65.8,10,847,.,.,15.96,0.00,0.00
15min,AgWx,beryljct,423,16JUN2019:15:00:00,85.2,13.44,78.4,78.4,78.7,79.7,77.9,31,34,27,0.882,45.2,48.8,41.2,3.814,8.1,42,21,15.4,0.00651,0.00816,70.5,65.9,9,828,.,.,15.96,0.00,0.00
15min,AgWx,beryljct,423,16JUN2019:15:15:00,85.6,13.31,79.2,78.8,78.7,79.1,78.2,28,32,26,0.910,43.2,46.2,40.5,3.113,5.7,60,29,11.0,0.00666,0.00802,71.1,66.0,10,885,.,.,15.96,0.00,0.00
15min,AgWx,beryljct,423,16JUN2019:15:30:00,86.0,13.32,78.0,79.0,79.2,80.6,78.2,25,29,22,0.920,40.1,43.7,37.1,8.53,6.7,11,28,12.1,0.00554,0.00702,71.5,66.0,10,691,.,.,15.96,0.00,0.00
15min,AgWx,beryljct,423,16JUN2019:15:45:00,85.7,13.37,78.9,79.1,78.7,79.3,78.2,27,31,23,0.855,41.5,44.9,37.6,2.981,3.2,296,56,8.2,0.00384,0.00466,72.0,66.2,10,514,.,.,15.96,0.00,0.00
15min,AgWx,beryljct,423,16JUN2019:16:00:00,85.4,13.39,78.2,78.2,78.9,80.0,78.1,28,31,24,0.924,42.6,46.4,39.5,9.05,4.8,38,49,9.8,0.00361,0.00464,72.4,66.3,9,431,.,.,15.96,0.01,0.00
15min,AgWx,beryljct,423,16JUN2019:16:15:00,83.9,13.46,77.5,77.7,78.0,78.6,77.6,27,32,25,0.982,41.6,45.5,39.4,2.762,4.8,36,29,8.8,0.00291,0.00391,72.7,66.4,9,306,.,.,15.97,0.00,0.00
15min,AgWx,beryljct,423,16JUN2019:16:30:00,82.7,13.5,77.6,77.1,77.8,78.5,77.1,30,35,25,1.009,43.6,48.0,39.5,8.31,2.5,37,38,8.8,0.00218,0.00273,73.0,66.6,10,272,.,.,15.97,0.00,0.00
15min,AgWx,beryljct,423,16JUN2019:16:45:00,81.6,13.52,78.1,77.7,77.0,77.7,76.2,32,36,29,0.978,45.2,47.6,42.6,6.927,5.8,338,22,8.4,0.00267,0.00372,73.2,66.7,9,277,.,.,15.97,0.00,0.00
15min,AgWx,beryljct,423,16JUN2019:17:00:00,80.8,13.52,76.8,77.2,77.4,78.1,76.6,29,34,27,0.889,43.0,46.0,40.9,6.094,6.6,354,19,8.2,0.00248,0.00368,73.4,66.9,9,199,.,.,15.97,0.00,0.00
15min,AgWx,beryljct,423,16JUN2019:17:15:00,79.9,13.55,77.4,77.4,77.2,77.5,76.9,28,30,27,0.949,41.7,43.3,40.6,3.836,6.9,6.0,7.7,10.0,0.00246,0.00371,73.4,67.0,10,207,.,.,15.97,0.00,0.00
15min,AgWx,beryljct,423,16JUN2019:17:30:00,79.4,13.27,75.6,76.1,77.0,77.5,76.1,30,35,28,1.032,43.6,46.9,41.6,5.196,4.8,358,12,6.4,0.00177,0.00265,73.5,67.2,9,161,.,.,15.97,0.00,0.00
15min,AgWx,beryljct,423,16JUN2019:17:45:00,78.3,13.2,74.1,73.6,74.0,76.1,73.2,40,43,34,1.061,48.0,50.6,45.7,5.744,4.5,322,7.0,5.9,0.00123,0.00191,73.5,67.4,9,72,.,.,15.98,0.01,0.00
15min,AgWx,beryljct,423,16JUN2019:18:00:00,76.7,13.16,71.9,72.7,73.0,73.9,72.6,39,41,35,0.989,46.6,48.2,43.9,22.62,7.9,299,16,25.5,0.00156,0.00262,73.4,67.5,10,26,.,.,15.98,0.01,0.00
15min,AgWx,beryljct,423,16JUN2019:18:15:00,74.5,13.13,66.7,66.8,68.7,72.6,66.8,43,48,36,1.085,45.5,46.8,44.2,24.11,27.5,268,9.7,38.7,0.00307,0.00532,73.3,67.6,10,10,.,.,15.99,0.00,0.00
15min,AgWx,beryljct,423,16JUN2019:18:30:00,71.8,13.12,66.3,66.2,66.5,66.9,66.1,49,51,47,1.118,46.8,47.8,45.9,20.39,23.6,275,9.6,32.1,0.00240,0.00417,73.2,67.8,10,6,.,.,15.99,0.00,0.00
15min,AgWx,beryljct,423,16JUN2019:18:45:00,70.0,13.1,67.3,67.3,66.5,67.3,66.0,49,52,46,1.058,47.0,48.0,45.5,20.21,20.8,275,9.3,28.9,0.00219,0.00381,73.1,67.9,10,5,.,.,15.99,0.00,0.00
15min,AgWx,beryljct,423,16JUN2019:19:00:00,69.5,13.06,67.0,67.7,68.0,68.5,67.2,43,46,40,1.051,44.7,46.0,43.1,13.99,18.6,298,9.8,25.3,0.00236,0.00412,72.8,68.0,10,3,.,.,15.99,0.00,0.00
15min,AgWx,beryljct,423,16JUN2019:19:15:00,67.9,13.07,64.8,65.0,66.3,67.6,65.0,49,55,45,1.157,46.8,48.7,45.3,20.76,16.7,324,22,24.4,0.00090,0.00107,72.6,68.1,10,4,.,.,15.99,0.01,0.00
15min,AgWx,beryljct,423,16JUN2019:19:30:00,65.6,13.06,62.5,63.0,64.5,65.3,63.0,54,60,50,1.173,47.6,49.5,45.8,11.97,15.4,350,15,24.8,0.00076,0.00091,72.3,68.2,10,15,.,.,15.99,0.00,0.00
15min,AgWx,beryljct,423,16JUN2019:19:45:00,65.3,13.06,61.9,62.1,62.8,63.3,62.1,58,60,56,1.146,47.8,48.9,47.3,15.45,16.8,333,7.9,22.8,0.00068,0.00080,72.0,68.3,10,11,.,.,16.00,0.00,0.00
15min,AgWx,beryljct,423,16JUN2019:20:00:00,64.7,13.05,61.6,61.3,61.7,62.1,61.3,61,61,60,1.133,48.0,48.3,47.9,13.35,12.4,328,7.7,20.3,0.00053,0.00064,71.7,68.3,9,2,.,.,16.00,0.00,0.00
15min,AgWx,beryljct,423,16JUN2019:20:15:00,64.1,13.04,60.9,60.7,60.9,61.4,60.5,63,65,61,1.148,48.3,48.9,47.8,6.752,9.2,311,18,12.7,0.00040,0.00051,71.4,68.3,10,0,.,.,16.00,0.00,0.00
15min,AgWx,beryljct,423,16JUN2019:20:30:00,63.4,13.02,61.0,61.0,60.7,61.1,59.7,64,69,62,1.148,48.5,49.5,48.0,1.951,4.6,120,86,8.9,0.00022,0.00031,71.1,68.4,10,0,.,.,16.00,0.00,0.00
15min,AgWx,beryljct,423,16JUN2019:20:45:00,62.8,13.01,61.3,60.0,60.8,61.7,59.6,64,69,61,1.176,48.5,49.4,47.9,3.31,3.3,59,22,6.3,0.00014,0.00022,70.8,68.4,10,0,.,.,16.00,0.00,0.00
15min,AgWx,beryljct,423,16JUN2019:21:00:00,62.4,13.01,59.3,58.4,60.2,61.5,58.1,66,76,61,1.237,49.0,50.7,48.1,2.039,3.0,11,39,4.7,0.00011,0.00017,70.5,68.4,10,0,.,.,16.00,0.00,0.00
15min,AgWx,beryljct,423,16JUN2019:21:15:00,62.0,13,61.0,60.7,60.3,61.5,58.5,65,73,60,1.129,48.3,50.1,47.4,3.266,4.0,18,10,6.5,0.00017,0.00026,70.3,68.5,10,0,.,.,16.01,0.00,0.00
15min,AgWx,beryljct,423,16JUN2019:21:30:00,62.2,13,61.9,61.6,60.7,61.6,59.7,64,70,59,1.131,48.6,50.0,47.2,11.33,5.9,267,45,11.9,0.00027,0.00038,70.0,68.4,11,0,.,.,16.00,0.00,0.00
15min,AgWx,beryljct,423,16JUN2019:21:45:00,62.7,12.97,63.4,63.3,62.1,63.4,61.6,59,61,55,1.117,47.7,48.1,46.7,2.083,7.4,285,20,12.7,0.00041,0.00054,69.7,68.4,10,0,.,.,16.00,0.00,0.00
15min,AgWx,beryljct,423,16JUN2019:22:00:00,62.5,12.97,59.4,59.9,62.0,63.4,59.9,62,72,55,1.264,48.6,50.8,47.1,13.48,9.1,269,23,14.8,0.00043,0.00055,69.5,68.4,10,0,.,.,16.01,0.00,0.00
15min,AgWx,beryljct,423,16JUN2019:22:15:00,61.0,12.97,58.0,58.0,58.4,59.8,57.6,77,81,72,1.286,51.4,51.9,50.6,9.78,8.7,239,13,12.6,0.00020,0.00026,69.2,68.4,10,0,.,.,16.04,0.03,0.02
15min,AgWx,beryljct,423,16JUN2019:22:30:00,59.7,12.96,57.9,57.6,57.7,58.0,57.4,81,82,78,1.318,51.8,52.2,51.3,3.99,6.1,218,7.2,10.3,0.00011,0.00016,69.0,68.3,10,0,.,.,16.04,0.01,0.01
15min,AgWx,beryljct,423,16JUN2019:22:45:00,59.0,12.95,57.2,57.2,57.4,57.8,57.1,83,87,81,1.356,52.5,53.3,51.8,7.432,5.9,191,17,10.1,0.00008,0.00012,68.8,68.3,10,0,.,.,16.05,0.00,0.00
15min,AgWx,beryljct,423,16JUN2019:23:00:00,58.6,12.95,56.0,55.9,56.4,57.2,55.9,88,90,85,1.365,52.8,53.2,52.4,9.54,8.0,165,21,11.8,0.00007,0.00009,68.5,68.2,10,0,.,.,16.06,0.01,0.01
15min,AgWx,beryljct,423,16JUN2019:23:15:00,58.1,12.93,56.0,55.7,55.8,56.0,55.7,89,90,88,1.339,52.7,52.9,52.3,9.95,10.7,151,7.9,15.0,0.00008,0.00010,68.3,68.2,10,0,.,.,16.06,0.00,0.00
15min,AgWx,beryljct,423,16JUN2019:23:30:00,57.8,12.93,56.5,56.2,56.0,56.3,55.8,88,89,87,1.358,52.5,53.0,52.1,13.42,11.0,149,15,14.6,0.00010,0.00012,68.1,68.1,10,0,.,.,16.06,0.00,0.00
15min,AgWx,beryljct,423,16JUN2019:23:45:00,57.8,12.91,56.3,56.5,56.4,56.7,56.2,86,88,83,1.313,52.1,52.8,51.7,4.911,10.5,143,11,16.5,0.00012,0.00015,67.9,68.1,9,0,.,.,16.06,0.00,0.00
15min,AgWx,bigpiney,439,16JUN2019:00:00:00,52.8,12.75,47.1,46.1,46.9,48.0,45.7,81,87,77,0.917,41.4,42.3,40.5,2.674,3.1,106,65,4.5,0.00004,0.00006,53.9,50.0,55,0,0,0.0,3.38,0.00,0.00
15min,AgWx,bigpiney,439,16JUN2019:00:15:00,51.9,12.74,46.1,46.2,47.3,48.7,46.2,81,86,77,0.871,41.7,42.5,40.8,3.814,3.2,202,14,4.0,0.00004,0.00007,53.9,50.1,55,0,0,0.0,3.38,0.00,0.00
15min,AgWx,bigpiney,439,16JUN2019:00:30:00,51.0,12.73,45.3,44.8,45.0,46.1,44.6,84,86,82,0.854,40.6,40.9,40.4,1.929,1.8,175,42,3.9,-0.00001,-0.00001,53.8,50.1,55,0,0,0.0,3.38,0.00,0.00
15min,AgWx,bigpiney,439,16JUN2019:00:45:00,50.1,12.72,45.3,45.6,45.1,46.4,43.9,84,88,81,0.850,40.7,41.7,39.7,0.811,1.4,158,19,3.5,-0.00003,-0.00003,53.8,50.1,55,0,0,0.0,3.38,0.00,0.00
15min,AgWx,bigpiney,439,16JUN2019:01:00:00,49.2,12.71,44.0,43.5,43.8,45.4,43.2,87,89,82,0.842,40.2,40.8,39.4,2.105,1.4,260,27,2.8,-0.00003,-0.00004,53.7,50.1,55,0,0,0.0,3.38,0.00,0.00
15min,AgWx,bigpiney,439,16JUN2019:01:15:00,48.4,12.7,43.2,42.9,42.7,43.6,42.1,89,90,88,0.825,39.6,40.3,38.9,2.477,2.6,286,19,4.3,-0.00001,-0.00001,53.7,50.1,55,0,0,0.0,3.38,0.00,0.00
15min,AgWx,bigpiney,439,16JUN2019:01:30:00,47.7,12.7,40.5,40.6,42.0,42.9,40.6,88,89,87,0.764,38.7,39.6,37.6,4.056,3.3,248,30,4.6,0.00001,0.00001,53.6,50.1,55,0,0,0.0,3.38,0.00,0.00
15min,AgWx,bigpiney,439,16JUN2019:01:45:00,47.0,12.69,41.3,40.9,40.5,41.0,40.3,89,90,89,0.780,37.7,38.3,37.4,3.727,3.8,234,7.2,5.1,0.00001,0.00001,53.5,50.1,55,0,0,0.0,3.38,0.00,0.00
15min,AgWx,bigpiney,439,16JUN2019:02:00:00,46.3,12.68,40.4,40.1,40.7,41.0,40.1,89,90,88,0.745,37.7,38.2,36.9,2.411,2.5,219,21,4.0,-0.00001,-0.00001,53.5,50.1,55,0,0,0.0,3.38,0.00,0.00
15min,AgWx,bigpiney,439,16JUN2019:02:15:00,45.7,12.67,40.0,39.5,39.4,40.2,39.0,90,91,89,0.749,36.8,37.3,36.4,2.609,2.7,208,23,3.7,-0.00001,-0.00001,53.4,50.1,55,0,0,0.0,3.38,0.00,0.00
15min,AgWx,bigpiney,439,16JUN2019:02:30:00,45.1,12.64,40.2,39.7,39.7,40.2,39.3,90,91,88,0.727,36.9,37.8,36.3,3.354,3.6,221,11,5.8,0.00000,0.00001,53.4,50.1,55,0,0,0.0,3.38,0.00,0.00
15min,AgWx,bigpiney,439,16JUN2019:02:45:00,44.7,12.64,41.1,40.9,40.9,41.4,39.7,87,89,85,0.746,37.2,37.8,36.5,2.565,2.6,247,10,4.7,-0.00000,0.00001,53.3,50.1,55,0,0,0.0,3.38,0.00,0.00
15min,AgWx,bigpiney,439,16JUN2019:03:00:00,44.3,12.64,39.3,39.3,40.0,40.9,39.3,86,89,85,0.724,36.3,37.0,35.8,0.965,1.9,244,32,3.5,-0.00001,-0.00001,53.2,50.1,55,0,0,0.0,3.38,0.00,0.00
15min,AgWx,bigpiney,439,16JUN2019:03:15:00,44.0,12.61,40.2,39.8,39.4,40.1,38.4,88,90,85,0.725,36.2,36.8,34.7,6.62,4.0,198,60,8.4,0.00001,0.00002,53.1,50.1,55,0,0,0.0,3.38,0.00,0.00
15min,AgWx,bigpiney,439,16JUN2019:03:30:00,43.7,12.62,40.8,40.2,39.7,40.2,39.1,87,88,85,0.720,36.1,36.5,35.6,6.379,5.7,204,19,7.7,0.00004,0.00006,53.0,50.1,55,0,0,0.0,3.38,0.00,0.00
15min,AgWx,bigpiney,439,16JUN2019:03:45:00,43.5,12.61,40.9,40.2,40.3,40.8,39.9,85,86,84,0.721,36.2,36.5,35.9,4.099,5.1,245,16,7.1,0.00004,0.00006,53.0,50.1,55,0,0,0.0,3.38,0.00,0.00
15min,AgWx,bigpiney,439,16JUN2019:04:00:00,43.4,12.6,37.8,38.5,39.7,40.5,38.5,85,87,84,0.672,35.6,36.3,34.4,2.061,2.4,313,63,5.0,0.00000,0.00001,52.9,50.0,55,0,0,0.0,3.38,0.00,0.00
15min,AgWx,bigpiney,439,16JUN2019:04:15:00,43.1,12.58,39.2,39.0,38.9,39.9,37.9,85,87,83,0.682,34.8,35.5,33.9,1.381,2.9,291,30,4.5,0.00001,0.00002,52.8,50.1,55,0,0,0.0,3.38,0.00,0.00
15min,AgWx,bigpiney,439,16JUN2019:04:30:00,42.7,12.56,36.5,36.5,37.1,39.0,35.8,88,92,84,0.668,33.7,34.7,32.6,1.337,2.4,311,61,5.1,-0.00001,-0.00001,52.7,50.0,55,1,0,0.0,3.38,0.00,0.00
15min,AgWx,bigpiney,439,16JUN2019:04:45:00,42.2,12.57,37.0,36.9,36.6,37.0,36.4,93,93,92,0.691,34.7,35.2,34.2,1.82,1.6,287,17,2.6,-0.00002,-0.00003,52.6,50.0,55,6,0,0.0,3.38,0.00,0.00
15min,AgWx,bigpiney,439,16JUN2019:05:00:00,41.8,12.6,38.3,37.7,37.2,37.7,36.9,92,93,92,0.706,35.2,35.6,34.9,2.565,2.4,302,25,3.0,-0.00029,-0.00028,52.5,50.0,55,26,1,0.0,3.38,0.00,0.00
15min,AgWx,bigpiney,439,16JUN2019:05:15:00,41.8,12.64,40.4,39.7,38.7,39.7,37.7,90,92,89,0.739,36.1,36.8,35.6,1.206,1.8,265,14,3.2,-0.00011,-0.00010,52.4,50.0,55,66,0,0.0,3.38,0.00,0.00
15min,AgWx,bigpiney,439,16JUN2019:05:30:00,42.3,12.68,41.8,41.6,40.9,41.7,39.8,88,89,87,0.783,37.7,38.3,36.8,2.543,1.6,250,18,4.0,0.00008,0.00012,52.3,50.0,55,106,0,0.0,3.38,0.00,0.00
15min,AgWx,bigpiney,439,16JUN2019:05:45:00,43.4,12.75,44.6,44.1,42.7,44.1,41.2,88,90,83,0.817,39.2,39.8,38.1,1.556,1.1,275,40,3.0,0.00029,0.00033,52.2,49.9,55,146,0,0.0,3.38,0.00,0.00
15min,AgWx,bigpiney,439,16JUN2019:06:00:00,44.9,12.76,43.3,43.1,44.2,45.0,43.1,83,86,78,0.817,39.3,39.7,38.6,1.096,1.4,240,52,2.9,0.00028,0.00033,52.1,49.9,55,119,0,0.0,3.38,0.00,0.00
15min,AgWx,bigpiney,439,16JUN2019:06:15:00,45.6,12.75,42.8,42.6,42.8,43.2,42.6,88,89,86,0.822,39.5,39.8,39.3,1.688,1.9,215,13,2.7,0.00037,0.00043,52.0,49.9,55,99,0,0.0,3.38,0.00,0.00
15min,AgWx,bigpiney,439,16JUN2019:06:30:00,46.0,12.78,44.1,43.6,42.9,43.6,42.6,88,89,88,0.854,39.7,40.5,39.3,1.513,2.1,233,10,3.5,0.00046,0.00053,51.9,49.9,55,109,0,0.0,3.38,0.00,0.00
15min,AgWx,bigpiney,439,16JUN2019:06:45:00,46.5,12.84,47.0,46.7,45.0,46.7,43.6,86,89,82,0.906,41.0,42.0,40.5,1.535,1.8,223,13,3.8,0.00082,0.00092,51.8,49.9,55,208,0,0.0,3.38,0.00,0.00
15min,AgWx,bigpiney,439,16JUN2019:07:00:00,47.8,12.84,48.8,48.6,47.7,48.7,46.7,78,83,72,0.832,41.3,42.4,39.8,0.504,1.8,240,15,2.9,0.00121,0.00135,51.7,49.9,55,282,0,0.0,3.38,0.00,0.00
15min,AgWx,bigpiney,439,16JUN2019:07:15:00,49.8,12.92,50.9,50.4,49.6,50.6,48.6,73,76,69,0.882,41.2,42.5,39.8,3.069,0.6,155,59,3.1,0.00164,0.00178,51.6,49.8,55,364,0,0.0,3.38,0.00,0.00
15min,AgWx,bigpiney,439,16JUN2019:07:30:00,52.1,13.11,51.3,51.2,50.8,51.6,50.1,70,74,68,0.907,41.5,43.6,40.4,0.351,1.6,56,33,3.9,0.00201,0.00222,51.5,49.8,55,424,0,0.0,3.38,0.00,0.00
15min,AgWx,bigpiney,439,16JUN2019:07:45:00,54.4,13.37,52.9,52.2,51.7,52.5,51.0,70,72,68,0.942,42.3,43.7,41.1,1.14,1.4,125,35,4.3,0.00232,0.00254,51.4,49.8,55,471,0,0.0,3.38,0.00,0.00
15min,AgWx,bigpiney,439,16JUN2019:08:00:00,56.3,13.6,52.8,52.2,52.7,53.2,52.2,70,72,68,0.918,43.0,44.4,42.0,2.389,1.9,75,57,4.7,0.00254,0.00280,51.3,49.7,55,498,0,0.0,3.38,0.00,0.00
15min,AgWx,bigpiney,439,16JUN2019:08:15:00,57.8,13.93,53.4,53.0,53.1,53.6,52.3,71,73,69,0.972,43.9,45.3,42.7,3.793,3.8,90,29,6.9,0.00280,0.00315,51.2,49.7,55,548,0,0.0,3.38,0.00,0.00
15min,AgWx,bigpiney,439,16JUN2019:08:30:00,59.0,14.43,54.5,54.3,53.6,54.3,53.1,71,73,69,1.045,44.4,45.7,43.5,5.634,3.3,92,24,6.4,0.00310,0.00345,51.2,49.7,55,597,0,0.0,3.38,0.00,0.00